| time (UTC) | temp C | wind direction | speed KPH | gust KPH | rain 1hr cm | rain 24hr cm | rain mn cm | humidity % | barometer mb |
| 20260510192332 | 12 | 135 | 3.2 | 8.0 | 0.00 | 0.00 | 0.00 | 72 | 1027.2 |
| 20260510190833 | 12 | 135 | 0.0 | 1.6 | 0.00 | 0.00 | 0.00 | 71 | 1027.1 |
| 20260510185333 | 13 | 135 | 0.0 | 1.6 | 0.00 | 0.00 | 0.00 | 71 | 1027.1 |
| 20260510183833 | 13 | 135 | 1.6 | 4.8 | 0.00 | 0.00 | 0.00 | 71 | 1027.1 |
| 20260510182333 | 13 | 135 | 3.2 | 4.8 | 0.00 | 0.00 | 0.00 | 71 | 1027.0 |
| 20260510180832 | 13 | 135 | 3.2 | 9.7 | 0.00 | 0.00 | 0.00 | 70 | 1026.9 |
| 20260510175334 | 14 | 135 | 3.2 | 9.7 | 0.00 | 0.00 | 0.00 | 69 | 1026.6 |
| 20260510173833 | 14 | 129 | 4.8 | 12.9 | 0.00 | 0.00 | 0.00 | 70 | 1026.6 |
| 20260510172332 | 14 | 135 | 8.0 | 12.9 | 0.00 | 0.00 | 0.00 | 70 | 1026.8 |
| 20260510170834 | 14 | 90 | 9.7 | 12.9 | 0.00 | 0.00 | 0.00 | 69 | 1026.7 |
| 20260510165333 | 14 | 135 | 8.0 | 11.3 | 0.00 | 0.00 | 0.00 | 68 | 1026.8 |
| 20260510163833 | 14 | 135 | 8.0 | 9.7 | 0.00 | 0.00 | 0.00 | 68 | 1026.7 |
| 20260510162334 | 14 | 135 | 4.8 | 9.7 | 0.00 | 0.00 | 0.00 | 66 | 1026.8 |
| 20260510160833 | 14 | 112 | 8.0 | 9.7 | 0.00 | 0.00 | 0.00 | 65 | 1026.8 |
| 20260510155333 | 15 | 135 | 8.0 | 11.3 | 0.00 | 0.00 | 0.00 | 65 | 1026.7 |
| 20260510153833 | 14 | 135 | 4.8 | 9.7 | 0.00 | 0.00 | 0.00 | 65 | 1027.0 |
| 20260510152333 | 14 | 162 | 8.0 | 9.7 | 0.00 | 0.00 | 0.00 | 64 | 1026.7 |
| 20260510150834 | 14 | 180 | 3.2 | 4.8 | 0.00 | 0.00 | 0.00 | 65 | 1026.7 |
| 20260510145333 | 14 | 180 | 3.2 | 4.8 | 0.00 | 0.00 | 0.00 | 64 | 1026.6 |
| 20260510143833 | 14 | 180 | 4.8 | 8.0 | 0.00 | 0.00 | 0.00 | 64 | 1026.7 |
| 20260510142333 | 14 | 180 | 3.2 | 4.8 | 0.00 | 0.00 | 0.00 | 65 | 1026.6 |
| 20260510140834 | 13 | 180 | 4.8 | 9.7 | 0.00 | 0.00 | 0.00 | 69 | 1026.6 |
| 20260510135333 | 12 | 180 | 3.2 | 4.8 | 0.00 | 0.00 | 0.00 | 73 | 1026.7 |
| 20260510133832 | 11 | 225 | 0.0 | 1.6 | 0.00 | 0.00 | 0.00 | 75 | 1026.5 |
| 20260510132334 | 11 | 225 | 0.0 | 0.0 | 0.00 | 0.00 | 0.00 | 74 | 1026.5 |
| 20260510130833 | 11 | 225 | 0.0 | 0.0 | 0.00 | 0.00 | 0.00 | 74 | 1026.6 |
| 20260510125333 | 12 | 225 | 0.0 | 0.0 | 0.00 | 0.00 | 0.00 | 74 | 1026.5 |
| 20260510123834 | 12 | 225 | 0.0 | 0.0 | 0.00 | 0.00 | 0.00 | 73 | 1026.7 |
| 20260510122333 | 12 | 225 | 0.0 | 0.0 | 0.00 | 0.00 | 0.00 | 73 | 1026.8 |
| 20260510120834 | 12 | 225 | 0.0 | 0.0 | 0.00 | 0.00 | 0.00 | 73 | 1027.0 |
| 20260510115334 | 12 | 225 | 0.0 | 0.0 | 0.00 | 0.00 | 0.00 | 70 | 1026.7 |
| 20260510113834 | 12 | 225 | 0.0 | 0.0 | 0.00 | 0.00 | 0.00 | 69 | 1026.8 |
| 20260510112332 | 13 | 225 | 0.0 | 0.0 | 0.00 | 0.00 | 0.00 | 68 | 1026.8 |
| 20260510110833 | 13 | 225 | 0.0 | 0.0 | 0.00 | 0.00 | 0.00 | 68 | 1026.9 |
| 20260510105333 | 13 | 225 | 0.0 | 0.0 | 0.00 | 0.00 | 0.00 | 66 | 1026.9 |
| 20260510103833 | 13 | 225 | 0.0 | 0.0 | 0.00 | 0.00 | 0.00 | 66 | 1027.0 |
| 20260510102332 | 14 | 225 | 0.0 | 0.0 | 0.00 | 0.00 | 0.00 | 65 | 1027.0 |
| 20260510100833 | 14 | 225 | 0.0 | 0.0 | 0.00 | 0.00 | 0.00 | 64 | 1026.9 |
| 20260510095333 | 15 | 225 | 0.0 | 0.0 | 0.00 | 0.00 | 0.00 | 64 | 1026.9 |
| 20260510093834 | 15 | 225 | 0.0 | 0.0 | 0.00 | 0.00 | 0.00 | 63 | 1026.8 |
| 20260510092333 | 15 | 225 | 0.0 | 0.0 | 0.00 | 0.00 | 0.00 | 62 | 1026.7 |
| 20260510090833 | 16 | 225 | 0.0 | 0.0 | 0.00 | 0.00 | 0.00 | 61 | 1026.5 |
| 20260510085333 | 16 | 225 | 0.0 | 0.0 | 0.00 | 0.00 | 0.00 | 60 | 1026.3 |
| 20260510083834 | 17 | 225 | 0.0 | 0.0 | 0.00 | 0.00 | 0.00 | 60 | 1026.0 |
| 20260510082333 | 17 | 225 | 0.0 | 0.0 | 0.00 | 0.00 | 0.00 | 53 | 1025.8 |
| 20260510080834 | 18 | 225 | 0.0 | 0.0 | 0.00 | 0.00 | 0.00 | 52 | 1025.8 |
| 20260510075333 | 18 | 225 | 0.0 | 0.0 | 0.00 | 0.00 | 0.00 | 50 | 1025.6 |
| 20260510073833 | 19 | 225 | 0.0 | 1.6 | 0.00 | 0.00 | 0.00 | 49 | 1025.5 |
| 20260510072333 | 20 | 225 | 0.0 | 0.0 | 0.00 | 0.00 | 0.00 | 46 | 1025.5 |
| 20260510070834 | 20 | 225 | 0.0 | 1.6 | 0.00 | 0.00 | 0.00 | 45 | 1025.2 |
| 20260510065333 | 21 | 225 | 1.6 | 4.8 | 0.00 | 0.00 | 0.00 | 44 | 1025.1 |
| 20260510063833 | 21 | 225 | 3.2 | 4.8 | 0.00 | 0.00 | 0.00 | 42 | 1024.9 |
| 20260510062333 | 22 | 225 | 1.6 | 3.2 | 0.00 | 0.00 | 0.00 | 41 | 1024.9 |
| 20260510060834 | 22 | 225 | 1.6 | 1.6 | 0.00 | 0.00 | 0.00 | 37 | 1024.7 |
| 20260510055333 | 22 | 225 | 0.0 | 4.8 | 0.00 | 0.00 | 0.00 | 36 | 1024.9 |
| 20260510053832 | 22 | 225 | 1.6 | 3.2 | 0.00 | 0.00 | 0.00 | 35 | 1024.5 |
| 20260510052334 | 22 | 225 | 1.6 | 4.8 | 0.00 | 0.00 | 0.00 | 35 | 1024.6 |
| 20260510050833 | 23 | 225 | 3.2 | 4.8 | 0.00 | 0.00 | 0.00 | 35 | 1024.4 |
| 20260510045332 | 23 | 45 | 1.6 | 3.2 | 0.00 | 0.00 | 0.00 | 34 | 1024.4 |
| 20260510043834 | 23 | 180 | 0.0 | 0.0 | 0.00 | 0.00 | 0.00 | 34 | 1024.4 |
| 20260510042334 | 23 | 180 | 0.0 | 1.6 | 0.00 | 0.00 | 0.00 | 34 | 1024.2 |
| 20260510040834 | 23 | 180 | 0.0 | 1.6 | 0.00 | 0.00 | 0.00 | 33 | 1024.2 |
| 20260510035332 | 23 | 180 | 1.6 | 4.8 | 0.00 | 0.00 | 0.00 | 34 | 1024.3 |
| 20260510033834 | 23 | 180 | 1.6 | 1.6 | 0.00 | 0.00 | 0.00 | 33 | 1024.2 |
| 20260510032334 | 23 | 180 | 1.6 | 3.2 | 0.00 | 0.00 | 0.00 | 33 | 1024.1 |
| 20260510030833 | 23 | 225 | 1.6 | 8.0 | 0.00 | 0.00 | 0.00 | 34 | 1024.5 |
| 20260510025333 | 23 | 225 | 0.0 | 1.6 | 0.00 | 0.00 | 0.00 | 33 | 1024.6 |
| 20260510023833 | 23 | 225 | 1.6 | 3.2 | 0.00 | 0.00 | 0.00 | 34 | 1024.8 |
| 20260510022333 | 23 | 270 | 3.2 | 8.0 | 0.00 | 0.00 | 0.00 | 34 | 1024.9 |
| 20260510020833 | 23 | 270 | 4.8 | 9.7 | 0.00 | 0.00 | 0.00 | 34 | 1025.2 |
| 20260510015334 | 23 | 0 | 3.2 | 4.8 | 0.00 | 0.00 | 0.00 | 34 | 1025.3 |
| 20260510013833 | 23 | 338 | 1.6 | 4.8 | 0.00 | 0.00 | 0.00 | 37 | 1025.5 |
| 20260510012332 | 22 | 338 | 3.2 | 4.8 | 0.00 | 0.00 | 0.00 | 37 | 1025.6 |
| 20260510010833 | 22 | 315 | 1.6 | 4.8 | 0.00 | 0.00 | 0.00 | 39 | 1025.6 |
| 20260510005333 | 22 | 290 | 3.2 | 8.0 | 0.00 | 0.00 | 0.00 | 41 | 1025.9 |
| 20260510003833 | 22 | 315 | 3.2 | 4.8 | 0.00 | 0.00 | 0.00 | 40 | 1025.7 |
| 20260510002333 | 21 | 315 | 0.0 | 4.8 | 0.00 | 0.00 | 0.00 | 42 | 1025.7 |
| 20260510000834 | 21 | 270 | 3.2 | 4.8 | 0.00 | 0.00 | 0.00 | 44 | 1025.6 |
| 20260509235333 | 21 | 270 | 3.2 | 4.8 | 0.00 | 0.00 | 0.00 | 44 | 1025.6 |
| 20260509233833 | 21 | 270 | 0.0 | 3.2 | 0.00 | 0.00 | 0.00 | 44 | 1025.5 |
| 20260509232333 | 20 | 270 | 1.6 | 3.2 | 0.00 | 0.00 | 0.00 | 47 | 1025.3 |
| 20260509230834 | 19 | 270 | 1.6 | 3.2 | 0.00 | 0.00 | 0.00 | 50 | 1025.1 |
| 20260509225334 | 18 | 270 | 1.6 | 3.2 | 0.00 | 0.00 | 0.00 | 50 | 1025.2 |
| 20260509223832 | 18 | 270 | 1.6 | 1.6 | 0.00 | 0.00 | 0.00 | 54 | 1025.1 |
| 20260509222334 | 17 | 270 | 0.0 | 0.0 | 0.00 | 0.00 | 0.00 | 64 | 1024.8 |
| 20260509220834 | 14 | 270 | 0.0 | 0.0 | 0.00 | 0.00 | 0.00 | 70 | 1024.7 |
| 20260509215333 | 12 | 270 | 0.0 | 0.0 | 0.00 | 0.00 | 0.00 | 81 | 1024.5 |
| 20260509213833 | 9 | 270 | 0.0 | 1.6 | 0.00 | 0.00 | 0.00 | 88 | 1024.2 |
| 20260509212334 | 7 | 270 | 0.0 | 0.0 | 0.00 | 0.00 | 0.00 | 90 | 1024.2 |
| 20260509210834 | 6 | 270 | 0.0 | 0.0 | 0.00 | 0.00 | 0.00 | 90 | 1024.0 |
| 20260509205333 | 6 | 270 | 0.0 | 0.0 | 0.00 | 0.00 | 0.00 | 90 | 1023.8 |
| 20260509203833 | 6 | 270 | 0.0 | 1.6 | 0.00 | 0.00 | 0.00 | 89 | 1023.8 |
| 20260509202333 | 6 | 270 | 0.0 | 0.0 | 0.00 | 0.00 | 0.00 | 89 | 1023.8 |
| 20260509200834 | 6 | 270 | 0.0 | 0.0 | 0.00 | 0.00 | 0.00 | 88 | 1023.6 |
| 20260509195334 | 6 | 270 | 0.0 | 0.0 | 0.00 | 0.00 | 0.00 | 87 | 1023.4 |
| 20260509193834 | 6 | 270 | 0.0 | 0.0 | 0.00 | 0.00 | 0.00 | 87 | 1023.2 |